Location: Driftpile
(55.3500°N, 115.7667°W)
Time: 08:58:44
(UTC+00:00)

N. Korean satellite - Pass Details

Date: 05 December 2021
Orbit: 447 x 490 km, 97.3° (Epoch: 26 January)

Event Time Altitude Azimuth Distance (km) Brightness Sun altitude
Rises 13:42:41 0° 10° (N) 2,478 10.1 -17.1°
Reaches altitude 10° 13:44:47 10° 4° (N) 1,595 9.1 -16.8°
Maximum altitude 13:48:03 45° 291° (WNW) 626 6.6 -16.3°
Drops below altitude 10° 13:51:17 10° 217° (SW) 1,576 8.9 -15.9°
Sets 13:53:21 0° 211° (SSW) 2,443 10.0 -15.6°
